| time (UTC) | temp C | wind direction | speed KPH | gust KPH | rain 1hr cm | rain 24hr cm | rain mn cm | humidity % | barometer mb |
| 20260506014028 | 10 | 251 | 1.6 | 3.2 | 0.00 | 1.37 | 0.00 | 99 | 1008.0 |
| 20260506010114 | 10 | 212 | 0.0 | 6.4 | 0.00 | 1.37 | 0.00 | 99 | 1008.1 |
| 20260506002059 | 10 | 270 | 0.0 | 6.4 | 0.00 | 1.37 | 0.00 | 99 | 1008.2 |
| 20260505234045 | 10 | 0.0 | 0.0 | 0.00 | 1.37 | 0.00 | 99 | 1008.4 | |
| 20260505230030 | 10 | 0.0 | 0.0 | 0.00 | 1.37 | 0.00 | 99 | 1008.3 | |
| 20260505222017 | 10 | 0.0 | 0.0 | 0.00 | 1.37 | 0.00 | 99 | 1008.4 | |
| 20260505214102 | 11 | 0.0 | 0.0 | 0.00 | 1.37 | 1.37 | 99 | 1008.5 | |
| 20260505210048 | 11 | 0.0 | 0.0 | 0.00 | 1.37 | 1.37 | 99 | 1008.7 | |
| 20260505202035 | 11 | 0.0 | 0.0 | 0.00 | 1.37 | 1.37 | 99 | 1008.5 | |
| 20260505194020 | 11 | 278 | 0.0 | 6.4 | 0.03 | 1.37 | 1.37 | 99 | 1007.5 |
| 20260505190107 | 11 | 306 | 6.4 | 12.9 | 1.12 | 1.37 | 1.37 | 99 | 1006.5 |
| 20260505182053 | 11 | 267 | 12.9 | 22.5 | 1.04 | 1.04 | 1.04 | 99 | 1008.1 |
| 20260505174039 | 16 | 135 | 1.6 | 3.2 | 0.05 | 0.05 | 0.05 | 90 | 1006.6 |
| 20260505170024 | 16 | 10 | 3.2 | 9.7 | 0.00 | 0.00 | 0.00 | 85 | 1005.9 |
| 20260505162111 | 18 | 20 | 4.8 | 14.5 | 0.00 | 0.00 | 0.00 | 76 | 1006.2 |
| 20260505122048 | 21 | 123 | 1.6 | 6.4 | 0.00 | 0.00 | 0.00 | 58 | 1007.9 |
| 20260505114032 | 21 | 194 | 3.2 | 9.7 | 0.00 | 0.00 | 0.00 | 59 | 1008.1 |
| 20260505102105 | 21 | 117 | 6.4 | 11.3 | 0.00 | 0.00 | 0.00 | 64 | 1008.9 |
| 20260505094050 | 20 | 135 | 8.0 | 14.5 | 0.00 | 0.00 | 0.00 | 66 | 1009.2 |
| 20260505090036 | 19 | 141 | 6.4 | 14.5 | 0.00 | 0.00 | 0.00 | 67 | 1009.5 |
| 20260505082022 | 19 | 117 | 6.4 | 11.3 | 0.00 | 0.00 | 0.00 | 72 | 1009.9 |
| 20260505074109 | 18 | 119 | 4.8 | 6.4 | 0.00 | 0.00 | 0.00 | 73 | 1010.1 |
| 20260505070054 | 16 | 58 | 4.8 | 11.3 | 0.00 | 0.00 | 0.00 | 76 | 1010.3 |
| 20260505062041 | 17 | 48 | 1.6 | 6.4 | 0.00 | 0.00 | 0.00 | 75 | 1010.5 |
| 20260505054027 | 13 | 268 | 1.6 | 6.4 | 0.00 | 0.00 | 0.00 | 89 | 1010.5 |
| 20260505050114 | 13 | 158 | 0.0 | 3.2 | 0.00 | 0.00 | 0.00 | 89 | 1010.5 |
| 20260505034046 | 12 | 269 | 1.6 | 6.4 | 0.00 | 0.00 | 0.00 | 91 | 1010.4 |
| 20260505030032 | 13 | 326 | 3.2 | 6.4 | 0.00 | 0.00 | 0.00 | 86 | 1010.7 |
| 20260505022019 | 13 | 0.0 | 0.0 | 0.00 | 0.00 | 0.00 | 85 | 1011.4 |